SAUDISAT 1C

Satellite information

Favourite Embed

Satellite Type and Status

PAYLOADIN ORBIT

Key statistics

Satellite SAUDISAT 1C at a glance.

Uptime

8298

Days in orbit

Revolutions

≈ 14.8

Per day

Orbit

LEO

Low Earth Orbit

Inclination

64.6

Latest

Satellite identification and parameters

Extended collection of information and parameters for SAUDISAT 1C.

Object identification

Identified? True

Debris? False

Object name: SAUDISAT 1C

International designator: 2002-058C

Object number (NORAD): 27607

Object ID (CCSDS): 27607

Country: SAUDI ARABIA (SAUD)

Current information (Y/N): Y

RCS size: SMALL

Orbital parameters

Period: 97.175 minutes

Inclination: 64.5526 deg

SMA: 7001.592 km

Apoapsis: 669.409 km

Periapsis: 577.506 km

RAAN: 282.8605 deg

Eccentricy: 0.00656299

Argument of periapsis: 315.056 deg

Mean anomaly: 44.5242 deg

Mean motion: 14.81861228 rev/day

Mean motion (dot): 0.00001828 rev/day2

B* drag term: 0.00024064586 1/REarth

Two-line elements (TLE)

Creation date: Sept. 8, 2025, 3:16 a.m.

Reference frame: TEME

Reference center: EARTH

Epoch: Sept. 7, 2025, 12:28 p.m. UTC

TLE line 0: 0 SAUDISAT 1C

TLE line 1: 1 27607U 02058C 25250.51958358 .00001828 00000-0 24065-3 0 9994

TLE line 2: 2 27607 64.5526 282.8605 0065630 315.0560 44.5242 14.81861228222551

Live tracking on map

Real-time ground track for satellite SAUDISAT 1C.

In-orbit conjunctions

There are no conjunctions computed for SAUDISAT 1C, at the moment. Check back to stay up to date, as we update our databases every day.

Go to all conjunctions

Associated space launch

Technology satellite for OHB-System, Germany.

SAUDISAT 1C was lifted into orbit during the mission ‘Dnepr | AATiS-OSCAR-49’, on board a Dnepr space rocket.

The launch took place on Dec. 20, 2002, 5 p.m. from 109/95.

For more information about the launch, click the button.

Launch to space Dnepr | AATiS-OSCAR-49
Dnepr | AATiS-OSCAR-49

Agency: N/A

Status: Launch Successful

Launch date: Dec. 20, 2002, 5 p.m. UTC

Rocket: Dnepr

Launch pad: 109/95

Location: Baikonur Cosmodrome, Republic of Kazakhstan

...

Latest news about this satellite

There are no fresh news available about this satellite. Check back as we update our databases every day.


Newsletter sign-up

Weekly statistics, charts and insights to help you stay on top of the space industry.